GW0552 Weather Reports


time (UTC)temp
F
wind
direction
speed
knots
gust
knots
rain 1hr
in
rain 24hr
in
rain mn
in
humidity
%
barometer
mb
20260904224104 82 57 0.0 0.0 0.00 0.00 0.00 82 1010.5
20260904223603 82 34 0.9 0.9 0.00 0.00 0.00 82 1010.5
20260904223059 83 23 1.7 1.7 0.00 0.00 0.00 80 1010.8
20260904222554 83 57 2.6 2.6 0.00 0.00 0.00 75 1010.6
20260904222050 84 75 2.6 2.6 0.00 0.00 0.00 74 1010.8
20260904221550 83 79 1.7 1.7 0.00 0.00 0.00 74 1010.9
20260904221044 83 79 1.7 1.7 0.00 0.00 0.00 74 1011.2
20260904220543 83 76 2.6 4.3 0.00 0.00 0.00 74 1011.1
20260904220039 82 86 4.3 5.2 0.00 0.00 0.00 74 1011.2
20260904215534 82 73 0.9 0.9 0.00 0.00 0.00 77 1011.5
20260904215030 81 78 0.0 0.0 0.00 0.00 0.00 77 1011.1
20260904214525 80 49 0.0 0.0 0.00 0.00 0.00 80 1011.4
20260904214021 80 35 0.9 1.7 0.00 0.00 0.00 81 1011.5
20260904213518 81 245 2.6 2.6 0.00 0.00 0.00 82 1011.5
20260904213015 81 35 0.9 0.9 0.00 0.00 0.00 77 1011.4
20260904212514 80 68 0.0 0.0 0.00 0.00 0.00 80 1011.5
20260904212009 79 61 0.0 0.0 0.00 0.00 0.00 81 1011.6
20260904211504 79 188 2.6 2.6 0.00 0.00 0.00 82 1011.4
20260904211000 81 196 3.5 4.3 0.00 0.00 0.00 78 1011.4
20260904210459 81 76 0.0 0.0 0.00 0.00 0.00 75 1011.8
20260904205955 82 72 2.6 4.3 0.00 0.00 0.00 80 1012.1
20260904205450 83 320 4.3 5.2 0.00 0.00 0.00 78 1012.2
20260904204947 84 12 1.7 1.7 0.00 0.00 0.00 78 1012.0
20260904204443 84 358 2.6 2.6 0.00 0.00 0.00 78 1012.1
20260904203938 85 45 0.9 1.7 0.00 0.00 0.00 75 1011.4
20260904203435 85 52 0.0 0.9 0.00 0.00 0.00 75 1011.3
20260904202930 85 76 2.6 4.3 0.00 0.00 0.00 74 1011.3
20260904202426 85 68 2.6 4.3 0.00 0.00 0.00 75 1011.0
20260904201922 86 63 2.6 2.6 0.00 0.00 0.00 75 1011.2
20260904201417 86 76 1.7 1.7 0.00 0.00 0.00 78 1010.9
20260904200913 87 75 0.9 0.9 0.00 0.00 0.00 74 1011.0
20260904200411 87 83 0.9 1.7 0.00 0.00 0.00 75 1011.2
20260904195906 88 78 2.6 2.6 0.00 0.00 0.00 70 1011.3
20260904195404 88 62 0.0 0.0 0.00 0.00 0.00 67 1011.3
20260904194859 88 51 0.0 0.0 0.00 0.00 0.00 68 1011.7
20260904194358 88 76 0.9 0.9 0.00 0.00 0.00 68 1011.6
20260904193854 88 58 0.0 0.0 0.00 0.00 0.00 70 1011.6
20260904193349 88 69 1.7 1.7 0.00 0.00 0.00 69 1011.5
20260904192844 89 103 2.6 2.6 0.00 0.00 0.00 68 1011.1
20260904192339 90 85 2.6 5.2 0.00 0.00 0.00 68 1011.2
20260904191836 90 51 6.1 7.0 0.00 0.00 0.00 65 1011.2
20260904191332 91 74 4.3 7.8 0.00 0.00 0.00 68 1011.0
20260904190828 90 71 2.6 4.3 0.00 0.00 0.00 70 1010.9
20260904190324 89 87 3.5 6.1 0.00 0.00 0.00 68 1010.9
20260904185820 89 84 4.3 6.1 0.00 0.00 0.00 67 1011.3
20260904185316 90 70 4.3 7.0 0.00 0.00 0.00 67 1011.3
20260904184815 89 92 6.1 7.0 0.00 0.00 0.00 67 1011.3
20260904184310 88 102 6.1 11.3 0.00 0.00 0.00 71 1011.6
20260904183805 88 76 1.7 1.7 0.00 0.00 0.00 73 1011.5
20260904183300 89 90 1.7 1.7 0.00 0.00 0.00 70 1011.6
20260904182755 91 97 6.1 7.8 0.00 0.00 0.00 68 1011.2
20260904182250 96 105 7.0 7.8 0.00 0.00 0.00 62 1011.4
20260904181746 95 116 2.6 2.6 0.00 0.00 0.00 55 1011.4
20260904181246 95 46 2.6 2.6 0.00 0.00 0.00 57 1011.3
20260904180741 95 178 3.5 4.3 0.00 0.00 0.00 57 1011.6
20260904180236 94 355 3.5 5.2 0.00 0.00 0.00 58 1011.3
20260904175735 93 10 2.6 2.6 0.00 0.00 0.00 59 1011.5
20260904175234 95 29 0.9 1.7 0.00 0.00 0.00 59 1011.2
20260904174729 95 357 1.7 2.6 0.00 0.00 0.00 58 1011.3
20260904174225 95 349 3.5 6.1 0.00 0.00 0.00 58 1011.2
20260904173720 95 292 2.6 4.3 0.00 0.00 0.00 59 1011.7
20260904172822 91 66 0.0 0.0 0.00 0.00 0.00 73 1012.1
20260904172321 91 66 0.0 0.0 0.00 0.00 0.00 73 1012.1
20260904171816 90 66 0.0 0.0 0.00 0.00 0.00 74 1012.3
20260904171311 90 66 0.0 0.0 0.00 0.00 0.00 71 1012.2
20260904170807 91 40 0.0 0.0 0.00 0.00 0.00 70 1012.5
20260904170303 92 41 0.0 0.0 0.00 0.00 0.00 69 1012.2
20260904165802 92 30 0.9 0.9 0.00 0.00 0.00 61 1012.1
20260904165256 93 39 0.9 0.9 0.00 0.00 0.00 61 1012.2
20260904164750 95 9 3.5 4.3 0.00 0.00 0.00 59 1012.3
20260904164246 95 31 0.0 0.9 0.00 0.00 0.00 59 1012.3
20260904163742 94 25 1.7 1.7 0.00 0.00 0.00 61 1012.5
20260904163237 95 295 3.5 4.3 0.00 0.00 0.00 62 1012.5
20260904162736 95 56 0.0 0.0 0.00 0.00 0.00 61 1012.5
20260904162231 95 11 0.0 0.0 0.00 0.00 0.00 61 1012.7
20260904161726 95 72 1.7 1.7 0.00 0.00 0.00 63 1012.6
20260904161221 94 62 0.0 0.0 0.00 0.00 0.00 66 1012.6
20260904160717 94 356 3.5 5.2 0.00 0.00 0.00 62 1012.6
20260904160212 94 69 2.6 2.6 0.00 0.00 0.00 63 1012.8
20260904155712 94 67 1.7 1.7 0.00 0.00 0.00 67 1012.7
20260904155211 93 64 0.0 0.0 0.00 0.00 0.00 66 1012.8
20260904154710 93 37 0.0 0.0 0.00 0.00 0.00 69 1012.9
20260904154205 92 79 2.6 2.6 0.00 0.00 0.00 68 1012.9
20260904153700 92 46 0.0 0.9 0.00 0.00 0.00 69 1012.9
20260904153156 92 75 0.0 1.7 0.00 0.00 0.00 68 1012.9
20260904152652 91 59 0.9 0.9 0.00 0.00 0.00 71 1013.1
20260904152147 91 24 1.7 2.6 0.00 0.00 0.00 70 1012.9
20260904151642 91 7 1.7 1.7 0.00 0.00 0.00 71 1013.0
20260904151141 90 52 0.0 0.0 0.00 0.00 0.00 75 1012.9
20260904150636 89 54 0.0 0.9 0.00 0.00 0.00 76 1012.9
20260904150132 89 41 0.0 0.0 0.00 0.00 0.00 78 1012.9
20260904145630 89 48 0.9 0.9 0.00 0.00 0.00 78 1012.6
20260904145126 89 304 4.3 4.3 0.00 0.00 0.00 75 1012.9
20260904144621 88 56 0.0 0.0 0.00 0.00 0.00 81 1012.8
20260904144117 87 26 0.0 0.0 0.00 0.00 0.00 81 1012.6
20260904143613 86 32 0.0 0.0 0.00 0.00 0.00 85 1013.0
20260904143109 86 42 0.9 1.7 0.00 0.00 0.00 87 1012.9
20260904142605 86 303 2.6 2.6 0.00 0.00 0.00 83 1012.9
20260904142100 86 112 1.7 1.7 0.00 0.00 0.00 85 1013.0
20260904141555 86 27 0.0 0.0 0.00 0.00 0.00 90 1012.9
20260904141050 86 39 0.0 0.0 0.00 0.00 0.00 95 1013.0
20260904140546 85 38 0.0 0.0 0.00 0.00 0.00 95 1013.0
20260904140040 85 40 0.0 0.0 0.00 0.00 0.00 96 1012.8
20260904135539 84 41 0.0 0.0 0.00 0.00 0.00 94 1012.6
20260904135035 83 48 0.0 0.0 0.00 0.00 0.00 96 1012.7
20260904134531 83 47 0.0 0.0 0.00 0.00 0.00 98 1013.0
20260904134025 82 42 0.0 0.0 0.00 0.00 0.00 99 1013.0
20260904133519 81 42 0.0 0.0 0.00 0.00 0.00 99 1013.1
20260904133015 81 43 0.0 0.0 0.00 0.00 0.00 99 1013.0
20260904132510 80 45 0.0 0.0 0.00 0.00 0.00 99 1013.1
20260904132010 79 43 0.0 0.0 0.00 0.00 0.00 99 1013.1
20260904131504 78 42 0.0 0.0 0.00 0.00 0.00 99 1013.2
20260904131001 77 45 0.0 0.0 0.00 0.00 0.00 99 1013.2
20260904130459 77 45 0.0 0.0 0.00 0.00 0.00 99 1013.2
20260904125954 75 47 0.0 0.0 0.00 0.00 0.00 99 1013.2
20260904125451 75 44 0.0 0.0 0.00 0.00 0.00 99 1013.1
20260904124950 75 56 0.0 0.0 0.00 0.00 0.00 99 1012.9
20260904124446 74 56 0.0 0.0 0.00 0.00 0.00 99 1013.2
20260904123942 74 56 0.0 0.0 0.00 0.00 0.00 99 1012.8
20260904123436 74 61 0.0 0.0 0.00 0.00 0.00 99 1013.0
20260904122932 73 63 0.0 0.0 0.00 0.00 0.00 99 1012.8
20260904122431 73 63 0.0 0.0 0.00 0.00 0.00 99 1012.8
20260904121926 73 61 0.0 0.0 0.00 0.00 0.00 99 1013.0
20260904121422 72 61 0.0 0.0 0.00 0.00 0.00 99 1013.0
20260904120919 72 61 0.0 0.0 0.00 0.00 0.00 99 1013.1
20260904120414 72 61 0.0 0.0 0.00 0.00 0.00 99 1013.0
20260904115909 72 62 0.0 0.0 0.00 0.00 0.00 99 1013.0
20260904115405 72 61 0.0 0.0 0.00 0.00 0.00 99 1012.8
20260904114859 72 61 0.0 0.0 0.00 0.00 0.00 99 1012.9
20260904114354 72 61 0.0 0.0 0.00 0.00 0.00 99 1012.7
20260904113849 71 61 0.0 0.0 0.00 0.00 0.00 99 1012.8
20260904113348 71 66 0.0 0.0 0.00 0.00 0.00 99 1012.6
20260904112843 71 61 0.0 0.0 0.00 0.00 0.00 99 1012.4
20260904112339 71 62 0.0 0.0 0.00 0.00 0.00 99 1012.5
20260904111834 71 62 0.0 0.0 0.00 0.00 0.00 99 1012.3
20260904111330 71 62 0.0 0.0 0.00 0.00 0.00 99 1012.3
20260904110826 71 62 0.0 0.0 0.00 0.00 0.00 99 1012.4
20260904110325 71 62 0.0 0.0 0.00 0.00 0.00 99 1012.2
20260904105824 71 61 0.0 0.0 0.00 0.00 0.00 99 1012.3
20260904105319 71 61 0.0 0.0 0.00 0.00 0.00 99 1012.5
20260904104815 71 61 0.0 0.0 0.00 0.00 0.00 99 1012.4
20260904104310 71 61 0.0 0.0 0.00 0.00 0.00 99 1012.3
20260904103807 71 61 0.0 0.0 0.00 0.00 0.00 99 1012.3
20260904103306 71 61 0.0 0.0 0.00 0.00 0.00 99 1012.3
20260904102802 71 61 0.0 0.0 0.00 0.00 0.00 99 1012.3
20260904102258 71 61 0.0 0.0 0.00 0.00 0.00 99 1012.1
20260904101754 71 61 0.0 0.0 0.00 0.00 0.00 99 1012.2
20260904101249 71 61 0.0 0.0 0.00 0.00 0.00 99 1012.2
20260904100745 72 62 0.0 0.0 0.00 0.00 0.00 99 1012.1
20260904100241 72 66 0.0 0.0 0.00 0.00 0.00 99 1012.2
20260904095740 71 63 0.0 0.0 0.00 0.00 0.00 99 1012.2
20260904095235 72 63 0.0 0.0 0.00 0.00 0.00 99 1012.2
20260904094730 71 62 0.0 0.0 0.00 0.00 0.00 99 1012.2
20260904094225 72 60 0.0 0.0 0.00 0.00 0.00 99 1012.1
20260904093722 72 60 0.0 0.0 0.00 0.00 0.00 99 1012.2
20260904093221 72 60 0.0 0.0 0.00 0.00 0.00 99 1012.0
20260904092717 72 61 0.0 0.0 0.00 0.00 0.00 99 1011.9
20260904092213 72 61 0.0 0.0 0.00 0.00 0.00 99 1012.1
20260904091709 72 64 0.0 0.0 0.00 0.00 0.00 99 1012.1
20260904091204 72 64 0.0 0.0 0.00 0.00 0.00 99 1012.1
20260904090659 72 64 0.0 0.0 0.00 0.00 0.00 99 1011.9
20260904090154 72 64 0.0 0.0 0.00 0.00 0.00 99 1011.9
20260904085649 72 63 0.0 0.0 0.00 0.00 0.00 99 1012.0
20260904085144 72 64 0.0 0.0 0.00 0.00 0.00 99 1011.7
20260904084639 72 64 0.0 0.0 0.00 0.00 0.00 99 1011.9
20260904084136 72 62 0.0 0.0 0.00 0.00 0.00 99 1011.8
20260904083632 72 64 0.0 0.0 0.00 0.00 0.00 99 1011.9
20260904083127 73 64 0.0 0.0 0.00 0.00 0.00 99 1011.8
20260904082622 72 74 0.0 0.0 0.00 0.00 0.00 99 1011.6
20260904082117 73 65 0.0 0.0 0.00 0.00 0.00 99 1011.7
20260904081613 73 64 0.0 0.0 0.00 0.00 0.00 99 1011.8
20260904081108 73 64 0.0 0.0 0.00 0.00 0.00 99 1011.8
20260904080604 73 65 0.0 0.0 0.00 0.00 0.00 99 1011.6
20260904080100 73 63 0.0 0.0 0.00 0.00 0.00 99 1011.7
20260904075555 73 65 0.0 0.0 0.00 0.00 0.00 99 1011.8
20260904075050 73 71 0.0 0.0 0.00 0.00 0.00 99 1011.6
20260904074549 73 66 0.0 0.0 0.00 0.00 0.00 99 1011.8
20260904074044 73 62 0.0 0.0 0.00 0.00 0.00 99 1011.9
20260904073539 73 65 0.0 0.0 0.00 0.00 0.00 99 1011.9
20260904073035 73 71 0.0 0.0 0.00 0.00 0.00 99 1011.7
20260904072531 73 66 0.0 0.0 0.00 0.00 0.00 99 1012.0
20260904072026 73 63 0.0 0.0 0.00 0.00 0.00 99 1011.9
20260904071521 73 63 0.0 0.0 0.00 0.00 0.00 99 1012.1
20260904071016 73 62 0.0 0.0 0.00 0.00 0.00 99 1011.9
20260904070515 73 62 0.0 0.0 0.00 0.00 0.00 99 1012.1
20260904070010 73 62 0.0 0.0 0.00 0.00 0.00 99 1011.9
20260904065505 73 62 0.0 0.0 0.00 0.00 0.00 99 1012.0
20260904065001 73 62 0.0 0.0 0.00 0.00 0.00 99 1012.0
20260904064456 73 63 0.0 0.0 0.00 0.00 0.00 99 1011.9
20260904063951 73 65 0.0 0.0 0.00 0.00 0.00 99 1011.9
20260904063448 74 63 0.0 0.0 0.00 0.00 0.00 99 1012.0
20260904062942 74 65 0.0 0.0 0.00 0.00 0.00 99 1012.1
20260904062439 74 67 0.0 0.0 0.00 0.00 0.00 99 1012.2
20260904061934 74 65 0.0 0.0 0.00 0.00 0.00 99 1012.2
20260904061431 74 63 0.0 0.0 0.00 0.00 0.00 99 1012.2
20260904060926 74 63 0.0 0.0 0.00 0.00 0.00 99 1012.4
20260904060422 74 63 0.0 0.0 0.00 0.00 0.00 99 1012.4
20260904055917 74 70 0.0 0.0 0.00 0.00 0.00 99 1012.4
20260904055413 74 71 0.0 0.0 0.00 0.00 0.00 99 1012.4
20260904054909 74 72 0.0 0.0 0.00 0.00 0.00 99 1012.4
20260904054404 74 73 0.0 0.0 0.00 0.00 0.00 99 1012.6
20260904053900 74 74 0.0 0.0 0.00 0.00 0.00 99 1012.7
20260904053358 74 62 0.0 0.0 0.00 0.00 0.00 99 1012.7
20260904052854 74 59 0.0 0.0 0.00 0.00 0.00 99 1012.6
20260904052351 74 45 0.0 0.0 0.00 0.00 0.00 99 1012.5
20260904051847 74 45 0.0 0.0 0.00 0.00 0.00 99 1012.6
20260904051342 74 60 0.0 0.0 0.00 0.00 0.00 99 1012.5
20260904050837 74 60 0.0 0.0 0.00 0.00 0.00 99 1012.4
20260904050334 74 60 0.0 0.0 0.00 0.00 0.00 99 1012.4
20260904045834 75 60 0.0 0.0 0.00 0.00 0.00 99 1012.6
20260904045329 75 60 0.0 0.0 0.00 0.00 0.00 99 1012.3
20260904044829 75 60 0.0 0.0 0.00 0.00 0.00 99 1012.2
20260904044325 75 61 0.0 0.0 0.00 0.00 0.00 99 1012.4
20260904043821 74 46 0.0 0.0 0.00 0.00 0.00 99 1012.3
20260904043317 75 46 0.0 0.0 0.00 0.00 0.00 99 1012.4
20260904042812 75 38 0.0 0.0 0.00 0.00 0.00 99 1012.3
20260904042309 75 24 0.0 0.0 0.00 0.00 0.00 99 1012.2
20260904041808 75 56 0.0 0.0 0.00 0.00 0.00 99 1012.0
20260904041305 75 57 0.0 0.0 0.00 0.00 0.00 99 1012.0
20260904040800 75 73 0.0 0.0 0.00 0.00 0.00 99 1012.1
20260904040255 75 71 0.0 0.0 0.00 0.00 0.00 99 1012.2
20260904035751 75 58 0.0 0.0 0.00 0.00 0.00 99 1012.3
20260904035247 75 74 0.0 0.0 0.00 0.00 0.00 99 1012.4
20260904034745 75 68 0.0 0.0 0.00 0.00 0.00 99 1012.4
20260904034242 76 71 0.0 0.0 0.00 0.00 0.00 99 1012.2
20260904033737 76 64 0.0 0.0 0.00 0.00 0.00 99 1012.3
20260904033234 76 64 0.0 0.0 0.00 0.00 0.00 99 1012.5
20260904032730 76 64 0.0 0.0 0.00 0.00 0.00 99 1012.3
20260904032228 76 67 0.0 0.0 0.00 0.00 0.00 99 1012.2
20260904031723 76 68 0.0 0.0 0.00 0.00 0.00 99 1012.4
20260904031219 76 59 0.0 0.0 0.00 0.00 0.00 99 1012.2
20260904030715 76 61 0.0 0.0 0.00 0.00 0.00 99 1012.3
20260904030209 76 66 0.0 0.0 0.00 0.00 0.00 99 1012.3
20260904025706 76 64 0.0 0.0 0.00 0.00 0.00 99 1012.5
20260904025201 76 68 0.0 0.0 0.00 0.00 0.00 99 1012.2
20260904024656 76 65 0.0 0.0 0.00 0.00 0.00 99 1012.3
20260904024152 77 64 0.0 0.0 0.00 0.00 0.00 99 1012.1
20260904023648 77 64 0.0 0.0 0.00 0.00 0.00 99 1012.4
20260904023144 77 63 0.0 0.0 0.00 0.00 0.00 98 1012.5
20260904022643 77 65 0.0 0.0 0.00 0.00 0.00 99 1012.4
20260904022140 77 68 0.0 0.0 0.00 0.00 0.00 98 1012.4
20260904021636 77 69 0.0 0.0 0.00 0.00 0.00 98 1012.5
20260904021130 77 64 0.0 0.0 0.00 0.00 0.00 98 1012.6
20260904020627 77 61 0.0 0.0 0.00 0.00 0.00 98 1012.7
20260904020121 77 65 0.0 0.0 0.00 0.00 0.00 98 1012.7
20260904015615 77 67 0.0 0.0 0.00 0.00 0.00 97 1012.6
20260904015114 78 67 0.0 0.0 0.00 0.00 0.00 97 1012.5
20260904014614 78 66 0.0 0.0 0.00 0.00 0.00 97 1012.5
20260904014109 78 69 0.0 0.0 0.00 0.00 0.00 97 1012.3
20260904013606 78 67 0.0 0.0 0.00 0.00 0.00 97 1012.5
20260904013102 78 67 0.0 0.0 0.00 0.00 0.00 96 1012.4
20260904012602 78 62 0.0 0.0 0.00 0.00 0.00 96 1012.3
20260904012056 78 61 0.0 0.0 0.00 0.00 0.00 96 1012.2
20260904011555 78 60 0.0 0.0 0.00 0.00 0.00 96 1012.3
20260904011051 79 66 0.0 0.0 0.00 0.00 0.00 96 1012.4
20260904010546 79 77 0.0 0.0 0.00 0.00 0.00 96 1011.9
20260904010043 79 67 0.0 0.0 0.00 0.00 0.00 95 1012.0
20260904005543 79 78 0.0 0.0 0.00 0.00 0.00 95 1012.1
20260904005038 80 73 0.0 0.0 0.00 0.00 0.00 94 1012.2
20260904004534 80 73 0.0 0.0 0.00 0.00 0.00 93 1012.1
20260904004028 80 73 0.0 0.0 0.00 0.00 0.00 93 1011.8
20260904003525 80 73 0.0 0.0 0.00 0.00 0.00 92 1012.0
20260904003020 80 73 0.0 0.0 0.00 0.00 0.00 92 1011.7
20260904002516 81 73 0.0 0.0 0.00 0.00 0.00 91 1011.7
20260904002015 81 73 0.0 0.0 0.00 0.00 0.00 91 1011.7
20260904001511 81 73 0.9 0.9 0.00 0.00 0.00 90 1011.6
20260904001010 81 73 0.9 0.9 0.00 0.00 0.00 90 1011.6
20260904000509 82 73 0.9 0.9 0.00 0.00 0.00 89 1011.6
20260904000006 82 73 0.9 0.9 0.00 0.00 0.00 88 1011.4
20260903235500 82 73 0.0 0.0 0.00 0.00 0.00 87 1011.7
20260903234955 83 73 0.0 0.0 0.00 0.00 0.00 86 1011.4
20260903234451 83 73 0.0 0.0 0.00 0.00 0.00 84 1011.6
20260903233947 83 72 0.0 0.0 0.00 0.00 0.00 84 1011.5
20260903233443 84 72 0.0 0.0 0.00 0.00 0.00 82 1011.4
20260903232937 84 72 0.0 0.0 0.00 0.00 0.00 82 1011.6
20260903232433 85 72 0.0 0.0 0.00 0.00 0.00 81 1011.3
20260903231932 85 72 0.0 0.0 0.00 0.00 0.00 80 1011.1
20260903231428 85 72 0.0 0.0 0.00 0.00 0.00 79 1011.3
20260903230922 86 72 0.0 0.0 0.00 0.00 0.00 78 1011.2
20260903230418 87 73 0.0 0.0 0.00 0.00 0.00 77 1011.2
20260903225914 87 70 0.9 0.9 0.00 0.00 0.00 75 1011.4
20260903225410 88 70 0.0 0.0 0.00 0.00 0.00 74 1011.0
20260903224906 89 70 0.9 0.9 0.00 0.00 0.00 72 1010.8
20260903224401 90 70 0.0 0.0 0.00 0.00 0.00 69 1011.2